Dewpoint
-4 -5 -8 -8 -8 -7 -8 -7 -6 -6 -4 -5 -7 -7 -7 -6 -4 -4 -1 -1 -1 -0 -0 -0 1 1 1 1 2 2 1 1 1 2 2 3 2 2 2 2 3 4
-6 -5 -2 -5 -6 -5 -4 -5 -5 -5 -6 -7 -8 -8 -7 -6 -6 -5 -4 -4 -4 -4 -3 -1 0 1 -0 1 0 1 0 1 1 1 -0 1 1 2 2 2 2 3
-8 -8 -8 -8 -7 -5 -4 -5 -6 -8 -8 -8 -8 -7 -7 -5 -6 -6 -5 -5 -5 -3 -2 -1 -0 -0 1 1 1 1 1 1 2 2 3 2 2 1 1 1 1 1
-8 -9 -10 -10 -9 -8 -8 -9 -10 -9 -8 -8 -8 -6 -5 -7 -6 -6 -6 -2 -2 -1 -2 -2 -1 -0 1 1 2 3 3 3 2 2 2 4 4 3 2 1 3 2
-9 -10 -10 -10 -10 -9 -10 -10 -10 -10 -10 -9 -9 -8 -6 -6 -6 -5 -5 -3 -2 -3 -1 -1 -1 -0 1 1 2 2 3 3 3 2 2 3 3 4 4 5 4 4
-9 -9 -9 -10 -10 -10 -10 -10 -10 -9 -9 -9 -9 -7 -7 -6 -6 -5 -3 -3 -3 -3 -2 -1 -0 -0 1 1 2 2 3 3 3 3 2 2 2 3 4 4 4 4
-9 -10 -10 -10 -10 -10 -10 -9 -8 -6 -8 -8 -6 -5 -5 -5 -5 -4 -4 -3 -3 -1 -1 -1 -1 -0 -0 1 2 3 4 3 3 4 4 4 4 3 3 4 4 4
-10 -10 -10 -10 -10 -9 -9 -8 -7 -6 -6 -5 -6 -6 -5 -6 -5 -5 -3 -3 -3 -2 -2 -1 -1 -1 -0 1 2 3 4 4 4 4 4 4 5 4 4 4 4 3
-10 -11 -10 -10 -10 -10 -8 -8 -7 -7 -5 -6 -6 -6 -5 -5 -4 -3 -3 -2 -2 -1 -1 -1 -1 -0 1 2 3 4 4 4 4 5 5 5 6 6 6 6 5 5
-11 -11 -11 -10 -9 -9 -8 -8 -8 -7 -5 -6 -6 -6 -5 -4 -3 -3 -2 -2 -1 -1 -1 -1 -0 0 1 2 3 3 4 5 5 6 6 6 6 6 6 6 6 6
-10 -10 -10 -9 -10 -9 -9 -8 -7 -7 -7 -6 -6 -5 -4 -4 -3 -2 -2 -1 -1 -1 -1 -1 -1 0 1 1 2 3 4 5 6 7 7 7 8 8 9 7 6 6
-10 -10 -10 -10 -10 -9 -9 -8 -7 -7 -7 -5 -4 -5 -5 -3 -3 -2 -1 -2 -2 -2 -1 -1 -1 -0 0 1 1 2 3 5 6 6 6 7 7 7 7 8 7 7
-10 -10 -10 -10 -9 -9 -8 -6 -7 -7 -7 -6 -5 -5 -4 -3 -2 -2 -0 -1 -1 -1 -1 -1 -0 0 1 2 2 2 5 6 6 6 6 6 7 8 8 8 7 7
-10 -10 -10 -9 -9 -6 -7 -6 -5 -6 -6 -5 -4 -4 -2 -1 -1 -1 -2 -1 -1 -1 -1 -0 1 1 1 2 3 4 5 6 5 5 5 6 6 7 8 8 9 9
-9 -9 -9 -8 -7 -7 -7 -6 -5 -5 -5 -4 -3 -1 -1 -0 -1 -1 -2 -1 -2 -1 -1 -0 1 1 1 1 2 3 4 4 5 5 6 6 7 7 8 9 9 9
-9 -8 -8 -8 -7 -7 -6 -6 -6 -5 -4 -3 -3 -1 -1 -1 -1 -1 -1 -2 -2 -2 -1 -1 -0 0 4 10 10 4 4 4 4 5 5 6 6 7 7 8 9 9
-9 -8 -8 -6 -6 -6 -6 -5 -5 -3 -2 -3 -2 -2 -2 -2 -1 -2 -3 -2 -3 -3 -3 -2 -1 0 9 12 15 16 12 8 6 6 7 8 8 8 8 9 9 10
-8 -7 -6 -6 -5 -6 -6 -5 -4 -3 -2 -1 -2 -2 -1 -1 -2 -3 -3 -3 -3 -3 -3 -2 -2 6 12 14 16 17 17 12 12 11 11 11 10 10 10 11 11 12
-6 -7 -5 -5 -5 -4 -4 -3 -3 -3 -3 -3 -3 -3 -3 -4 -3 -3 -4 -4 -4 -4 -4 -3 -2 7 12 15 16 17 19 17 14 14 13 13 14 14 13 14 14 14
-5 -5 -4 -2 -3 -4 -4 -4 -4 -4 -4 -4 -3 -3 -3 -4 -4 -5 -4 -4 -4 -4 -4 -4 -3 5 12 14 16 18 19 18 15 14 14 15 15 16 16 17 17 17
-5 -4 -3 -3 -3 -4 -4 -4 -5 -5 -4 -4 -4 -3 -4 -6 -6 -6 -5 -5 -5 -5 -4 -5 -4 8 12 14 16 18 19 18 16 16 15 16 17 18 18 19 19 19
-2 -2 -3 -1 -2 -4 -4 -4 -4 -6 -6 -5 -5 -4 -5 -5 -5 -5 -5 -5 -5 -5 -5 -4 -4 10 13 15 17 18 19 16 16 16 17 18 19 19 19 19 20 21
-1 -2 -2 -3 -4 -4 -5 -5 -4 -5 -6 -5 -6 -5 -5 -6 -5 -6 -5 -5 -5 -4 -3 -3 -3 4 12 14 16 18 17 15 16 16 18 18 18 19 21 22 22 22
-0 -1 -2 -3 -3 -5 -5 -5 -5 -5 -5 -5 -6 -6 -6 -6 -6 -6 -6 -5 -5 -5 -4 -4 -4 2 11 14 16 18 17 15 16 16 17 18 19 19 20 21 20 20
1 -1 -2 -2 -3 -3 -5 -5 -5 -5 -5 -5 -5 -6 -6 -6 -6 -7 -6 -6 -6 -5 -0 -1 -1 3 11 14 16 18 17 16 16 17 17 18 18 17 17 18 17 18
1 -1 0 -2 -3 -4 -4 -5 -5 -5 -6 -6 -6 -6 -7 -7 -7 -7 -7 -6 -5 -4 -3 -2 -1 -0 3 13 15 17 19 16 17 18 17 18 17 17 17 18 18 16